User: anonymous   Login
Location: Unspecified
(0.0000°N, 0.0000°E)
Time: 09:32:59
(UTC+00:00)
Language:

DMSP-16 (USA 172) - Orbit

View from above orbital plane
View from above orbital plane
View from above satellite
View from above satellite

Ground track
Ground track

The orbit data is extracted from the following two-line orbital elements,

1 28054U 03048A   17362.25272032 0.00000000  00000-0  00000-0 0    09
2 28054  98.7911 335.0979 0009001 270.1807  89.8192 14.13739213    08
Epoch (UTC): 28 December 2017 06:03:55
Eccentricity: 0.0009001
inclination: 98.7911°
perigee height: 840 km
apogee height: 853 km
right ascension of ascending node: 335.0979°
argument of perigee: 270.1807°
revolutions per day: 14.13739213
mean anomaly at epoch: 89.8192°
orbit number at epoch: 0

The dashed part of the orbit path shows where the satellite is in the earth's shadow,  

DLR